Regional Weather Roundup
Issued by NWS

Home | Current Version | Previous Version | Graphics & Text | Print | Product List | Glossary On
Versions: 1 2 3 4 5 6 7 8 9 10 11 12 13 14 15 16 17 18 19 20 21 22 23 24 25 26 27 28 29 30 31 32 33 34 35 36 37 38 39 40 41 42 43 44 45 46 47 48 49 50
000
ASUS43 KMPX 181401
RWRMN
WEATHER ROUNDUP FOR MINNESOTA
NATIONAL WEATHER SERVICE TWIN CITIES/CHANHASSEN MN
900 AM CDT WED OCT 18 2017


NOTE: "FAIR" INDICATES FEW OR NO CLOUDS BELOW 12,000 FEET WITH NO
SIGNIFICANT WEATHER AND/OR OBSTRUCTIONS TO VISIBILITY. N/A MEANS
CURRENT SKY AND/OR WEATHER CONDITIONS ARE NOT AVAILABLE.

MNZ060>063-068>070-181500-
   Twin Cities Metro

CITY           SKY/WX    TMP DP  RH WIND       PRES   REMARKS
TWIN CITIES    MOSUNNY   53  47  79 SE9       29.80F
ST PAUL        SUNNY     51  47  86 SE8       29.82F
CRYSTAL        SUNNY     54  44  69 S12       29.77F
BLAINE         MOSUNNY   54  46  76 S13       29.78F
LAKEVILLE      SUNNY     52  46  82 S13       29.81F
EDEN PRAIRIE   SUNNY     55  46  71 S10       29.79F
SOUTH ST PAUL  SUNNY     52  46  79 S7        29.81F
LAKE ELMO      FAIR      52  46  82 S13       29.82F
$$
MNZ001>005-007-008-013>017-022>024-027-028-181500-
   Northwest Minnesota

CITY           SKY/WX    TMP DP  RH WIND       PRES   REMARKS
BEMIDJI        CLOUDY    55  39  53 SW8       29.66R
HALLOCK        PTCLDY    55  34  44 W22G31    29.63R
ROSEAU         CLOUDY    57  37  47 W13G23    29.57R
WARROAD        CLOUDY    57  37  47 W22G29    29.56R
CROOKSTON      CLOUDY    52  36  54 W9        29.69R
FOSSTON        CLOUDY    50  37  62 SW12      29.69R
DETROIT LAKES  MOSUNNY   55  39  54 W7        29.73R
MOORHEAD       CLOUDY    46  39  76 SW6       29.74R
PARK RAPIDS    CLOUDY    49  43  80 SW8       29.70R
MAHNOMEN       FAIR      49  40  71 SW8       29.70R
$$
MNZ006-009>011-018-025>026-181500-
   North Central Minnesota

CITY           SKY/WX    TMP DP  RH WIND       PRES   REMARKS
BAUDETTE       CLOUDY    57  37  47 SW14G22   29.55R
FLAG ISLAND    CLOUDY    57  36  44 W17G28    29.49R
INTL FALLS     CLOUDY    59  38  45 SW9G20    29.55R
WASKISH        MOSUNNY   57  41  54 SW15      29.60S
BIG FORK       MOSUNNY   57  43  58 SW12      29.64R
LONGVILLE      CLOUDY    55  43  62 SW6       29.69R
GRAND RAPIDS   CLOUDY    54  42  64 SW7       29.69R
CRANE LAKE     CLOUDY    55  39  54 S7        29.61F
ORR            CLOUDY    57  37  47 S9G21     29.60S
COOK           CLOUDY    55  41  58 SW10      29.63R
WALKER         FAIR      55  40  58 SW13G18   29.67R
$$
MNZ012-019>021-037-181500-
   Northeast Minnesota

CITY           SKY/WX    TMP DP  RH WIND       PRES   REMARKS
DULUTH         SUNNY     55  44  66 SW13G25   29.70F
ELY            SUNNY     59  37  44 S8        29.62F
HIBBING        CLOUDY    52  41  66 VRB6      29.67R
EVELETH        CLOUDY    58  41  53 SW9       29.67R
DULUTH HARBOR  SUNNY     54  46  76 W5        29.71F
TWO HARBORS    SUNNY     54  46  76 SW3       29.69F
SILVER BAY     SUNNY     43  43 100 CALM      29.68F
GRAND MARAIS     N/A     50  47  89 CALM      29.71F
G MARAIS ARPRT SUNNY     54  41  62 S8        29.72F
$$
MNZ029>031-032-039>041-046>048-054>057-064-181500-
   West Central Minnesota

CITY           SKY/WX    TMP DP  RH WIND       PRES   REMARKS
FERGUS FALLS   MOSUNNY   48  43  81 CALM      29.76R
WHEATON        CLOUDY    55  37  50 W9        29.78R
MORRIS         CLOUDY    48  45  87 CALM      29.75R
ALEXANDRIA     CLOUDY    54  43  66 W12       29.75R
ELBOW LAKE     FAIR      50  43  77 NW5       29.75R
WADENA         CLOUDY    54  43  66 W7        29.72R
GLENWOOD       CLOUDY    54  45  71 SW12      29.75R
APPLETON       CLOUDY    52  45  76 CALM      29.76R
BENSON         MOSUNNY   50  45  81 CALM      29.77R
ORTONVILLE     CLOUDY    55  41  58 NW8       29.77R
MADISON        CLOUDY    59  45  58 W13       29.77R
WILLMAR        FAIR      54  46  76 SE6       29.75R
$$
MNZ033>034-036-042>043-049>051-058-059-181500-
   Central Minnesota

CITY           SKY/WX    TMP DP  RH WIND       PRES   REMARKS
ST CLOUD       CLOUDY    52  46  80 S12       29.73F
SAUK CENTRE    FAIR      53  44  72 W6        29.75R
PAYNESVILLE    CLOUDY    53  46  76 S8        29.74S
AITKIN         CLOUDY    54  43  66 W8G16     29.71R
PINE RIVER     CLOUDY    54  43  66 SW7       29.74S
BRAINERD       CLOUDY    54  42  64 SW10      29.73R
STAPLES        CLOUDY    54  43  66 SW5       29.72S
LONG PRAIRIE   FAIR      52  43  71 S8        29.74R
LITTLE FALLS   CLOUDY    52  37  58 S7        29.71S
LITCHFIELD     MOSUNNY   52  46  82 CALM      29.75R
BUFFALO        SUNNY     53  45  73 S9        29.77S
MAPLE LAKE     CLOUDY    53  47  78 S9        29.76S
HUTCHINSON     MOSUNNY   52  47  82 SE5       29.77S
$$
MNZ037-044-045-052-053-181500-
   East Central Minnesota

CITY           SKY/WX    TMP DP  RH WIND       PRES   REMARKS
PRINCETON      SUNNY     55  46  71 S10       29.74F
MORA           SUNNY     50  43  76 S8        29.76S
CAMBRIDGE      SUNNY     55  43  62 S9        29.77S
RUSH CITY      SUNNY     52  45  77 S10       29.77F
MOOSE LAKE     SUNNY     52  43  71 S10       29.71S
HINCKLEY       FAIR      52  46  82 S9        29.76S
CLOQUET        SUNNY     54  43  66 S12G18    29.70F
MCGREGOR       CLOUDY    54  43  66 S9        29.68S
$$
MNZ071>073-080-081-089-090-097-098-181500-
   Southwest Minnesota

CITY           SKY/WX    TMP DP  RH WIND       PRES   REMARKS
MONTEVIDEO     PTSUNNY   55  46  71 NW7       29.77R
GRANITE FALLS  CLOUDY    56  48  74 S7        29.74R
CANBY          CLOUDY    57  44  60 SW5G17    29.76R
MARSHALL       CLOUDY    58  45  62 SW17      29.72S
REDWOOD FALLS  SUNNY     53  45  74 S10       29.74S
OLIVIA         SUNNY     50  45  81 S6        29.73S
PIPESTONE      CLOUDY    54  45  71 S9        29.78S
WORTHINGTON    SUNNY     54  45  71 S13G20    29.81R
JACKSON        SUNNY     50  45  81 S13       29.83R
TRACY          SUNNY     56  47  69 SW21G26   29.75S
SLAYTON        SUNNY     55  42  62 S18       29.79S
$$
MNZ065>067-074>077-082>085-091>093-181500-
   South Central Minnesota

CITY           SKY/WX    TMP DP  RH WIND       PRES   REMARKS
MANKATO        SUNNY     52  46  80 S13       29.82F
NEW ULM          N/A     50  45  81 S13       29.78S
ST JAMES       CLOUDY    52  45  76 S13G20    29.81S
FAIRMONT       SUNNY     49  45  86 S16       29.84S
GLENCOE        SUNNY     53  46  78 S9        29.77S
FARIBAULT      SUNNY     52  46  82 S13       29.84F
OWATONNA       SUNNY     52  46  82 S15G24    29.84F
WASECA         SUNNY     54  45  71 S10G17    29.85F
ALBERT LEA     SUNNY     54  46  76 S10       29.87F
$$
MNZ078>079-086>088-094>096-181500-
   Southeast Minnesota

CITY           SKY/WX    TMP DP  RH WIND       PRES   REMARKS
ROCHESTER      SUNNY     52  46  80 S20       29.90S
RED WING       SUNNY     54  45  71 S7        29.86R
STANTON        SUNNY     53  46  76 S10G17    29.82F
DODGE CENTER   SUNNY     52  45  76 S16       29.87S
WINONA         SUNNY     55  45  67 SE5       29.92S
AUSTIN         SUNNY     50  45  81 S12       29.89F
PRESTON        SUNNY     51  44  78 S15       29.92S
$$
ABBREVIATIONS USED IN REMARKS
   TC - TEMPERATURES IN CELSIUS
  WCI - WIND CHILL INDEX
   HX - HEAT INDEX
  VSB - VISIBILITY
$$




USA.gov is the U.S. government's official web portal to all federal, state and local government web resources and services.